This is the latest recevied weather packets stored in our database for station/object HB9FRQ-10. If no packets are shown the sender has not sent any weather packets the latest 10 day(s).
| Time | Temp. | Humidity | Pressure | Rain* | Wind** | Luminosity | Snow |
|---|---|---|---|---|---|---|---|
| 1777421344 | 13.33° C | 95% | 1017.9 hPa | - | - | - | - |
| 1777420443 | 13.33° C | 90% | 1017.9 hPa | - | - | - | - |
| 1777419543 | 13.89° C | 87% | 1017.8 hPa | - | - | - | - |
| 1777418643 | 13.89° C | 85% | 1018 hPa | - | - | - | - |
| 1777417743 | 13.89° C | 87% | 1018 hPa | - | - | - | - |
| 1777416843 | 13.89° C | 86% | 1018.1 hPa | - | - | - | - |
| 1777415942 | 13.89° C | 87% | 1018.3 hPa | - | - | - | - |
| 1777415042 | 14.44° C | 84% | 1018.3 hPa | - | - | - | - |
| 1777414142 | 14.44° C | 82% | 1018.4 hPa | - | - | - | - |
| 1777413242 | 14.44° C | 85% | 1018.3 hPa | - | - | - | - |
| 1777412342 | 14.44° C | 83% | 1018.4 hPa | - | - | - | - |
| 1777411442 | 14.44° C | 79% | 1018.3 hPa | - | - | - | - |
| 1777410542 | 15° C | 77% | 1018.2 hPa | - | - | - | - |
| 1777409641 | 15° C | 76% | 1018.1 hPa | - | - | - | - |
| 1777408742 | 15° C | 75% | 1018 hPa | - | - | - | - |
| 1777407841 | 15° C | 74% | 1018 hPa | - | - | - | - |
| 1777406941 | 15° C | 73% | 1018 hPa | - | - | - | - |
| 1777406041 | 15.56° C | 71% | 1017.9 hPa | - | - | - | - |
| 1777405141 | 15.56° C | 71% | 1017.6 hPa | - | - | - | - |
| 1777404241 | 15.56° C | 71% | 1017.5 hPa | - | - | - | - |
| 1777403341 | 15.56° C | 69% | 1017.3 hPa | - | - | - | - |
| 1777402441 | 16.11° C | 64% | 1017.1 hPa | - | - | - | - |
| 1777401541 | 16.67° C | 64% | 1017 hPa | - | - | - | - |
| 1777400641 | 17.22° C | 61% | 1016.9 hPa | - | - | - | - |
| 1777399741 | 17.78° C | 57% | 1016.9 hPa | - | - | - | - |
* Rain since midnight (hover to see other rain measurements)
** Current wind speed in m/s (hover to see current wind gust speed)